TimeCDT,TemperatureF,Dew PointF,Humidity,Sea Level PressureIn,VisibilityMPH,Wind Direction,Wind SpeedMPH,Gust SpeedMPH,PrecipitationIn,Events,Conditions,WindDirDegrees,DateUTC
12:53 AM,79.0,75.9,90,29.93,10.0,SSW,9.2,-,N/A,,Clear,200,2010-07-24 05:53:00
1:53 AM,78.1,75.0,90,29.93,10.0,SSW,8.1,-,N/A,,Clear,210,2010-07-24 06:53:00
2:53 AM,77.0,73.9,90,29.93,10.0,SSW,8.1,-,N/A,,Clear,200,2010-07-24 07:53:00
4:53 AM,78.1,73.9,87,29.91,10.0,SW,10.4,-,N/A,,Clear,220,2010-07-24 09:53:00
5:53 AM,77.0,73.9,90,29.91,10.0,SW,8.1,-,N/A,,Clear,230,2010-07-24 10:53:00
7:53 AM,81.0,75.0,82,29.95,10.0,SW,11.5,-,N/A,,Clear,230,2010-07-24 12:53:00
8:53 AM,82.9,75.0,77,29.96,10.0,WSW,10.4,-,N/A,,Scattered Clouds,240,2010-07-24 13:53:00
9:35 AM,82.4,75.2,79,30.01,10.0,West,8.1,-,N/A,,Overcast,260,2010-07-24 14:35:00
9:53 AM,84.0,75.9,76,29.99,10.0,West,13.8,17.3,N/A,,Mostly Cloudy,270,2010-07-24 14:53:00
10:53 AM,87.1,75.0,67,29.99,10.0,East,4.6,-,N/A,,Clear,80,2010-07-24 15:53:00
11:53 AM,88.0,75.9,67,29.96,10.0,SE,8.1,-,N/A,,Partly Cloudy,140,2010-07-24 16:53:00
12:53 PM,89.1,77.0,67,29.94,10.0,SSE,11.5,-,N/A,,Clear,160,2010-07-24 17:53:00
1:53 PM,90.0,78.1,68,29.92,10.0,SSW,15.0,18.4,N/A,,Clear,200,2010-07-24 18:53:00
2:53 PM,90.0,79.0,70,29.90,10.0,South,16.1,23.0,N/A,,Partly Cloudy,190,2010-07-24 19:53:00
5:26 PM,86.0,78.8,79,29.91,10.0,SSW,11.5,-,0.00,Rain-Thunderstorm,Light Thunderstorms and Rain,210,2010-07-24 22:26:00
5:44 PM,75.2,71.6,89,29.94,10.0,West,16.1,32.2,0.00,Rain-Thunderstorm,Light Thunderstorms and Rain,260,2010-07-24 22:44:00
5:53 PM,73.9,71.1,91,29.93,2.0,WSW,11.5,25.3,0.06,Rain-Thunderstorm,Light Thunderstorms and Rain,240,2010-07-24 22:53:00
5:55 PM,73.4,71.6,94,29.94,1.5,WSW,17.3,25.3,0.02,Rain-Thunderstorm,Light Thunderstorms and Rain,240,2010-07-24 22:55:00
6:03 PM,73.4,69.8,88,29.91,5.0,SW,10.4,21.9,0.05,Rain-Thunderstorm,Light Thunderstorms and Rain,230,2010-07-24 23:03:00
6:40 PM,73.4,71.6,94,29.93,10.0,WSW,8.1,-,0.05,,Mostly Cloudy,240,2010-07-24 23:40:00
6:53 PM,73.0,71.1,93,29.91,10.0,SW,11.5,-,0.05,,Mostly Cloudy,230,2010-07-24 23:53:00
7:53 PM,73.0,71.1,93,29.89,10.0,SSW,8.1,-,N/A,,Clear,200,2010-07-25 00:53:00
8:53 PM,73.0,71.1,93,29.92,10.0,Calm,Calm,-,N/A,,Clear,0,2010-07-25 01:53:00
9:53 PM,73.0,71.1,93,29.93,10.0,South,4.6,-,N/A,,Mostly Cloudy,180,2010-07-25 02:53:00
9:55 PM,73.4,71.6,94,29.95,10.0,South,5.8,-,N/A,Thunderstorm,Mostly Cloudy,170,2010-07-25 02:55:00
10:14 PM,73.4,71.6,94,29.95,10.0,South,5.8,-,N/A,Thunderstorm,Thunderstorm,170,2010-07-25 03:14:00
10:51 PM,73.4,71.6,94,29.99,2.5,West,23.0,31.1,0.16,Rain-Thunderstorm,Heavy Thunderstorms and Rain,260,2010-07-25 03:51:00
10:53 PM,73.0,71.1,93,29.96,2.5,West,21.9,29.9,0.17,Rain-Thunderstorm,Heavy Thunderstorms and Rain,260,2010-07-25 03:53:00
11:00 PM,73.4,71.6,94,29.99,4.0,WSW,24.2,32.2,0.02,Rain-Thunderstorm,Thunderstorms and Rain,250,2010-07-25 04:00:00
11:11 PM,73.4,71.6,94,29.99,8.0,WSW,15.0,28.8,0.03,Rain,Light Rain,250,2010-07-25 04:11:00
11:20 PM,71.6,71.6,100,30.01,7.0,West,13.8,-,0.05,Rain-Thunderstorm,Thunderstorms and Rain,260,2010-07-25 04:20:00
11:39 PM,73.4,71.6,94,30.01,6.0,West,12.7,-,0.08,Rain,Rain,270,2010-07-25 04:39:00
11:53 PM,73.9,72.0,93,29.99,7.0,West,12.7,-,0.10,Rain-Thunderstorm,Light Rain,270,2010-07-25 04:53:00